Winona, MN

12:02 PM CDT on September 15, 2019 (GMT -0500)
Winona Municipal-Conrad

Weather History for KONA - July, 2019

Change the Weather History Date:

Tuesday, July 23, 2019

  Actual Average Record
Temperature  
Mean Temperature 70 °F -  
Max Temperature 80 °F 79 °F 95 °F (2012)
Min Temperature 59 °F 60 °F 51 °F (2003)
Cooling Degree Days 4    
Growing Degree Days 20 (Base 50)    
Moisture  
Dew Point 59 °F    
Average Humidity 69    
Maximum Humidity 94    
Minimum Humidity 45    
Precipitation  
Precipitation 0.00 in - - ()
Sea Level Pressure  
Sea Level Pressure 30.18 in    
Wind  
Wind Speed 6 mph (NW)    
Max Wind Speed 14 mph    
Max Gust Speed 17 mph    
Visibility 10 miles    
Events      
Averages and records for this station are not official NWS values.
T = Trace of Precipitation, MM = Missing Value Source: NWS Daily Summary

Daily Weather History Graph

Daily Weather History Graph

Search for Another Location

Airport or City:

Astronomy

Jul. 23, 2019 Rise Set
Actual Time 5:45 AM CDT 8:40 PM CDT
Civil Twilight 5:10 AM CDT 9:15 PM CDT
Nautical Twilight 4:27 AM CDT 9:58 PM CDT
Astronomical Twilight 3:36 AM CDT 10:49 PM CDT
Moon No Moon Rise 12:11 PM CDT (7/23)
Length of Visible Light 16h 04m
Length of Day
14h 55m
Waning Gibbous, 63% of the Moon is Illuminated
Jul 23
Waning Gibbous
Jul 24
Last Quarter
Jul 31
New
Aug 7
First Quarter
Aug 15
Full

Hourly Weather History & Observations

Time (CDT) Temp. Heat Index Dew Point Humidity Pressure Visibility Wind Dir Wind Speed Gust Speed Precip Events Conditions
12:55 AM 62.6 °F - 57.2 °F 82% 30.19 in 10.0 mi NW 3.5 mph - N/A   Clear
1:55 AM 62.6 °F - 57.2 °F 82% 30.18 in 10.0 mi WNW 3.5 mph - N/A   Clear
2:55 AM 60.8 °F - 55.4 °F 82% 30.18 in 10.0 mi NW 5.8 mph - N/A   Clear
3:55 AM 60.8 °F - 57.2 °F 88% 30.18 in 10.0 mi NW 5.8 mph - N/A   Clear
4:55 AM 59.0 °F - 55.4 °F 88% 30.19 in 10.0 mi NW 3.5 mph - N/A   Clear
5:55 AM 59.0 °F - 57.2 °F 94% 30.20 in 10.0 mi NNW 4.6 mph - N/A   Clear
6:55 AM 60.8 °F - 57.2 °F 88% 30.21 in 10.0 mi NW 4.6 mph - N/A   Clear
7:55 AM 64.4 °F - 59.0 °F 83% 30.22 in 10.0 mi NNW 3.5 mph - N/A   Clear
8:55 AM 69.8 °F - 60.8 °F 73% 30.22 in 10.0 mi NW 5.8 mph - N/A   Clear
9:55 AM 71.6 °F - 59.0 °F 64% 30.22 in 10.0 mi NW 8.1 mph - N/A   Clear
10:55 AM 75.2 °F - 60.8 °F 61% 30.22 in 10.0 mi North 4.6 mph - N/A   Clear
11:55 AM 75.2 °F - 60.8 °F 61% 30.21 in 10.0 mi NNW 6.9 mph - N/A   Clear
12:55 PM 77.0 °F - 59.0 °F 54% 30.19 in 10.0 mi NNW 13.8 mph 17.3 mph N/A   Clear
1:55 PM 78.8 °F - 60.8 °F 54% 30.18 in 10.0 mi NW 11.5 mph - N/A   Clear
2:55 PM 80.6 °F 81.5 °F 60.8 °F 51% 30.17 in 10.0 mi NW 13.8 mph - N/A   Clear
3:55 PM 80.6 °F 81.1 °F 59.0 °F 48% 30.16 in 10.0 mi NW 11.5 mph 17.3 mph N/A   Scattered Clouds
4:55 PM 80.6 °F 80.8 °F 57.2 °F 45% 30.15 in 10.0 mi WNW 10.4 mph - N/A   Clear
5:55 PM 78.8 °F - 59.0 °F 51% 30.14 in 10.0 mi NW 6.9 mph - N/A   Clear
6:55 PM 78.8 °F - 60.8 °F 54% 30.14 in 10.0 mi NW 6.9 mph - N/A   Clear
7:55 PM 77.0 °F - 59.0 °F 54% 30.14 in 10.0 mi WNW 4.6 mph - N/A   Clear
8:55 PM 75.2 °F - 60.8 °F 61% 30.14 in 10.0 mi NW 4.6 mph - N/A   Clear
9:55 PM 69.8 °F - 60.8 °F 73% 30.15 in 10.0 mi NW 3.5 mph - N/A   Clear
10:55 PM 69.8 °F - 62.6 °F 78% 30.16 in 10.0 mi NW 4.6 mph - N/A   Clear
11:55 PM 66.2 °F - 62.6 °F 88% 30.16 in 10.0 mi NW 4.6 mph - N/A   Clear